Home   Weather   Vechta   Past weeks

Flag for Germany Past Weather in Vechta, Lower Saxony, Germany — Yesterday and Last 2 Weeks

50 °F

Passing clouds.

Feels Like: 48 °F
Forecast: 47 / 54 °F
Wind: 5 mph from West

Location: Bremen Airport

Current Time: Oct 28, 2016 at 11:49:18 PM

Latest Report: Oct 28, 2016 at 11:20 PM

Visibility: N/A

Pressure: 30.48 "Hg

Humidity: 94%

Dew Point: 48 °F

Location of VechtaLocation

Past Weather in Vechta — Graph


Vechta Temperature Yesterday

Maximum temperature yesterday: 55 °F (at 12:50 PM)
Minimum temperature yesterday: 48 °F (at 12:20 AM)
Average temperature yesterday: 52 °F

High & Low Weather Summary for the Past Weeks

High63 °F (Oct 16, 3:50 PM)100% (Oct 15, 4:50 PM)30.45 "Hg (Oct 15, 4:50 PM)
Low32 °F (Oct 26, 3:20 AM)58% (Oct 23, 3:20 PM)29.74 "Hg (Oct 15, 3:50 AM)
Average48 °F90%30.08 "Hg
* Reported Oct 13 10:20 PM — Oct 28 10:20 PM, Vechta, Weather by CustomWeather, © 2016

Note: Actual official high and low records may vary slightly from our data, if they occured in-between our weather recording intervals... More about our weather records


Vechta Weather History for the Previous 24 Hours

Scroll right to see more
Time TempWeatherWind HumidityBarometerVisibility
10:20 PM
Fri, Oct 28
50 °FPassing clouds.6 mph94%30.45 "HgN/A
9:50 PM52 °FPassing clouds.6 mph88%30.45 "HgN/A
9:20 PM52 °FPassing clouds.6 mph88%30.45 "HgN/A
8:50 PM50 °FPassing clouds.5 mph94%30.45 "HgN/A
8:20 PM52 °FPassing clouds.6 mph88%30.45 "HgN/A
7:50 PM54 °FPassing clouds.6 mph88%30.42 "HgN/A
7:20 PM54 °FPartly cloudy.7 mph88%30.42 "HgN/A
6:50 PM55 °FPassing clouds.9 mph88%30.42 "HgN/A
6:20 PM55 °FSprinkles. Partly cloudy.9 mph88%30.39 "HgN/A
5:50 PM55 °FBroken clouds.12 mph94%30.39 "HgN/A
5:20 PM55 °FBroken clouds.12 mph94%30.39 "HgN/A
4:50 PM57 °FDrizzle. Broken clouds.14 mph88%30.39 "HgN/A
4:20 PM57 °FDrizzle. Partly sunny.13 mph88%30.39 "HgN/A
3:50 PM57 °FDrizzle. Partly sunny.13 mph88%30.36 "Hg6 mi
3:20 PM57 °FDrizzle. Partly sunny.14 mph94%30.36 "Hg4 mi
2:50 PM55 °FDrizzle. Partly sunny.13 mph100%30.36 "Hg2 mi
2:20 PM55 °FDrizzle. Partly sunny.14 mph94%30.36 "Hg2 mi
1:50 PM55 °FDrizzle. Partly sunny.13 mph94%30.36 "Hg2 mi
1:20 PM55 °FDrizzle. Partly sunny.13 mph94%30.36 "Hg2 mi
12:50 PM55 °FDrizzle. Partly sunny.13 mph94%30.36 "Hg2 mi
12:20 PM55 °FDrizzle. Partly sunny.14 mph94%30.36 "Hg3 mi
11:50 AM55 °FPartly sunny.13 mph88%30.36 "Hg4 mi
11:20 AM55 °FPartly sunny.14 mph88%30.33 "Hg4 mi
10:50 AM55 °FDrizzle. Partly sunny.15 mph88%30.33 "Hg4 mi
10:20 AM55 °FPartly sunny.14 mph88%30.33 "HgN/A
9:50 AM55 °FPartly sunny.17 mph82%30.33 "HgN/A
9:20 AM55 °FPartly sunny.14 mph82%30.33 "HgN/A
8:50 AM55 °FPartly sunny.14 mph82%30.30 "HgN/A
8:20 AM55 °FPartly sunny.15 mph82%30.30 "HgN/A
7:50 AM54 °FPassing clouds.15 mph88%30.30 "HgN/A
7:20 AM54 °FPassing clouds.14 mph88%30.30 "HgN/A
6:50 AM54 °FPassing clouds.14 mph88%30.30 "HgN/A
6:20 AM54 °FPartly cloudy.14 mph88%30.33 "HgN/A
5:50 AM54 °FPartly cloudy.15 mph88%30.33 "HgN/A
5:20 AM54 °FPassing clouds.14 mph88%30.30 "HgN/A
4:50 AM54 °FPassing clouds.13 mph88%30.33 "HgN/A
4:20 AM54 °FPassing clouds.13 mph88%30.33 "HgN/A
3:50 AM54 °FPassing clouds.14 mph88%30.33 "HgN/A
3:20 AM54 °FPassing clouds.12 mph82%30.36 "HgN/A
2:50 AM54 °FPassing clouds.12 mph82%30.36 "HgN/A
2:20 AM54 °FPassing clouds.12 mph82%30.36 "HgN/A
1:50 AM54 °FPassing clouds.13 mph82%30.36 "HgN/A
1:20 AM54 °FPassing clouds.10 mph82%30.36 "HgN/A
12:50 AM54 °FPassing clouds.12 mph82%30.36 "HgN/A
12:20 AM54 °FPassing clouds.13 mph82%30.39 "HgN/A
11:50 PM
Thu, Oct 27
52 °FPassing clouds.12 mph88%30.39 "HgN/A
11:20 PM52 °FPassing clouds.12 mph88%30.39 "HgN/A
Weather by CustomWeather, © 2016

See weather overviewHow to use our weather pages